TimeEST,TemperatureF,Dew PointF,Humidity,Sea Level PressureIn,VisibilityMPH,Wind Direction,Wind SpeedMPH,Gust SpeedMPH,PrecipitationIn,Events,Conditions,WindDirDegrees,DateUTC
12:35 AM,23.0,19.4,86,30.01,4.0,North,4.6,-,N/A,,Overcast,350,2013-01-29 05:35:00
12:55 AM,23.0,21.2,93,30.01,4.0,North,4.6,-,N/A,,Overcast,350,2013-01-29 05:55:00
1:15 AM,23.0,21.2,93,30.02,4.0,North,5.8,-,N/A,,Overcast,360,2013-01-29 06:15:00
1:35 AM,23.0,19.4,86,30.02,7.0,North,3.5,-,N/A,,Overcast,360,2013-01-29 06:35:00
1:55 AM,23.0,19.4,86,30.03,7.0,NNW,3.5,-,N/A,,Overcast,340,2013-01-29 06:55:00
2:15 AM,23.0,19.4,86,30.04,9.0,Calm,Calm,-,N/A,,Overcast,0,2013-01-29 07:15:00
2:55 AM,23.0,19.4,86,30.05,10.0,Calm,Calm,-,N/A,,Overcast,0,2013-01-29 07:55:00
3:15 AM,23.0,19.4,86,30.05,10.0,Calm,Calm,-,N/A,,Overcast,0,2013-01-29 08:15:00
3:35 AM,23.0,19.4,86,30.06,10.0,Calm,Calm,-,N/A,,Overcast,0,2013-01-29 08:35:00
3:55 AM,24.8,19.4,80,30.06,10.0,North,3.5,-,N/A,,Overcast,360,2013-01-29 08:55:00
4:15 AM,24.8,19.4,80,30.06,10.0,North,3.5,-,N/A,,Overcast,10,2013-01-29 09:15:00
4:35 AM,24.8,21.2,86,30.07,10.0,North,3.5,-,N/A,,Mostly Cloudy,10,2013-01-29 09:35:00
5:15 AM,23.0,19.4,86,30.07,10.0,Calm,Calm,-,N/A,,Overcast,0,2013-01-29 10:15:00
5:35 AM,23.0,19.4,86,30.08,10.0,Calm,Calm,-,N/A,,Overcast,0,2013-01-29 10:35:00
6:15 AM,23.0,19.4,86,30.09,10.0,Calm,Calm,-,N/A,,Overcast,0,2013-01-29 11:15:00
6:35 AM,23.0,19.4,86,30.11,10.0,SW,3.5,-,N/A,,Overcast,230,2013-01-29 11:35:00
6:55 AM,23.0,19.4,86,30.10,10.0,Calm,Calm,-,N/A,,Overcast,0,2013-01-29 11:55:00
7:35 AM,23.0,19.4,86,30.13,10.0,Calm,Calm,-,N/A,,Overcast,0,2013-01-29 12:35:00
7:55 AM,23.0,19.4,86,30.13,10.0,Calm,Calm,-,N/A,,Overcast,0,2013-01-29 12:55:00
8:15 AM,23.0,19.4,86,30.14,10.0,Calm,Calm,-,N/A,,Overcast,0,2013-01-29 13:15:00
8:55 AM,24.8,19.4,80,30.15,10.0,Calm,Calm,-,N/A,,Overcast,0,2013-01-29 13:55:00
9:15 AM,24.8,21.2,86,30.14,10.0,Calm,Calm,-,N/A,,Overcast,0,2013-01-29 14:15:00
9:35 AM,24.8,19.4,80,30.14,10.0,Calm,Calm,-,N/A,,Overcast,0,2013-01-29 14:35:00
10:15 AM,26.6,21.2,80,30.16,10.0,Calm,Calm,-,N/A,,Overcast,0,2013-01-29 15:15:00
10:35 AM,26.6,21.2,80,30.17,7.0,Calm,Calm,-,N/A,,Overcast,0,2013-01-29 15:35:00
10:55 AM,26.6,21.2,80,30.17,10.0,Calm,Calm,-,N/A,,Overcast,0,2013-01-29 15:55:00
11:35 AM,28.4,23.0,80,30.16,10.0,Calm,Calm,-,N/A,,Overcast,0,2013-01-29 16:35:00
11:55 AM,28.4,23.0,80,30.15,7.0,Calm,Calm,-,0.03,,Overcast,0,2013-01-29 16:55:00
12:35 PM,30.2,24.8,80,30.15,10.0,Calm,Calm,-,0.02,,Overcast,0,2013-01-29 17:35:00
12:55 PM,30.2,26.6,86,30.15,10.0,Calm,Calm,-,0.03,,Overcast,0,2013-01-29 17:55:00
1:15 PM,32.0,26.6,80,30.13,5.0,Calm,Calm,-,0.01,,Overcast,0,2013-01-29 18:15:00
1:35 PM,32.0,26.6,80,30.13,10.0,Calm,Calm,-,0.01,,Overcast,0,2013-01-29 18:35:00
1:55 PM,32.0,26.6,80,30.13,10.0,Calm,Calm,-,0.02,,Overcast,0,2013-01-29 18:55:00
2:15 PM,33.8,26.6,75,30.13,10.0,SSW,4.6,-,N/A,,Overcast,200,2013-01-29 19:15:00
2:55 PM,33.8,28.4,81,30.13,10.0,South,3.5,-,0.01,,Overcast,190,2013-01-29 19:55:00
3:15 PM,33.8,28.4,81,30.13,10.0,South,3.5,-,N/A,,Overcast,190,2013-01-29 20:15:00
3:35 PM,33.8,28.4,81,30.13,10.0,SSW,4.6,-,N/A,,Overcast,210,2013-01-29 20:35:00
3:55 PM,33.8,28.4,81,30.14,10.0,SSW,3.5,-,N/A,,Overcast,200,2013-01-29 20:55:00
4:15 PM,32.0,28.4,87,30.14,10.0,WSW,3.5,-,N/A,,Overcast,250,2013-01-29 21:15:00
4:35 PM,32.0,28.4,87,30.13,10.0,Calm,Calm,-,N/A,,Overcast,0,2013-01-29 21:35:00
4:55 PM,32.0,28.4,87,30.14,10.0,Calm,Calm,-,N/A,,Overcast,0,2013-01-29 21:55:00
5:35 PM,32.0,28.4,87,30.14,10.0,Calm,Calm,-,0.01,,Overcast,0,2013-01-29 22:35:00
5:55 PM,32.0,28.4,87,30.16,10.0,WSW,4.6,-,0.01,,Overcast,250,2013-01-29 22:55:00
6:15 PM,30.2,28.4,93,30.14,10.0,Calm,Calm,-,N/A,,Overcast,0,2013-01-29 23:15:00
6:35 PM,30.2,28.4,93,30.14,10.0,Calm,Calm,-,N/A,,Overcast,0,2013-01-29 23:35:00
6:55 PM,30.2,28.4,93,30.15,9.0,WSW,3.5,-,N/A,,Overcast,250,2013-01-29 23:55:00
7:15 PM,30.2,28.4,93,30.13,8.0,Calm,Calm,-,N/A,,Overcast,0,2013-01-30 00:15:00
7:55 PM,30.2,28.4,93,30.15,4.0,Calm,Calm,-,N/A,,Overcast,0,2013-01-30 00:55:00
8:15 PM,30.2,28.4,93,30.15,5.0,Calm,Calm,-,N/A,,Overcast,0,2013-01-30 01:15:00
8:35 PM,30.2,28.4,93,30.14,3.0,Calm,Calm,-,N/A,,Overcast,0,2013-01-30 01:35:00
8:55 PM,30.2,28.4,93,30.13,3.0,Calm,Calm,-,N/A,,Overcast,0,2013-01-30 01:55:00
9:35 PM,30.2,28.4,93,30.12,3.0,Calm,Calm,-,N/A,,Overcast,0,2013-01-30 02:35:00
9:55 PM,30.2,28.4,93,30.12,3.0,Calm,Calm,-,N/A,,Overcast,0,2013-01-30 02:55:00
10:15 PM,30.2,28.4,93,30.12,4.0,Calm,Calm,-,N/A,,Overcast,0,2013-01-30 03:15:00
10:35 PM,32.0,30.2,93,30.11,3.0,Calm,Calm,-,N/A,,Overcast,0,2013-01-30 03:35:00
10:55 PM,32.0,30.2,93,30.11,3.0,Calm,Calm,-,N/A,,Overcast,0,2013-01-30 03:55:00
11:15 PM,32.0,30.2,93,30.11,2.5,Calm,Calm,-,N/A,,Overcast,0,2013-01-30 04:15:00
11:35 PM,32.0,30.2,93,30.12,3.0,Calm,Calm,-,N/A,,Overcast,0,2013-01-30 04:35:00
11:55 PM,32.0,30.2,93,30.11,3.0,Calm,Calm,-,0.01,,Overcast,0,2013-01-30 04:55:00